DW4847 Weather Reports


Display with metric or nautical units.
time (UTC)temp
F
wind
direction
speed
MPH
gust
MPH
rain 1hr
in
rain 24hr
in
rain mn
in
humidity
%
barometer
mb
20260902212544 64 269 0.0 1.0 0.00 0.03 0.01 92 1020.1
20260902212027 64 269 0.0 0.0 0.00 0.03 0.01 91 1020.0
20260902211530 64 269 0.0 0.0 0.00 0.03 0.01 91 1020.1
20260902211032 64 269 0.0 1.0 0.00 0.03 0.01 91 1020.4
20260902210536 64 269 0.0 1.0 0.00 0.03 0.01 90 1020.3
20260902210037 64 268 0.0 0.0 0.00 0.03 0.01 89 1020.3
20260902205538 64 270 0.0 1.0 0.00 0.03 0.01 89 1020.4
20260902205059 64 270 0.0 1.0 0.00 0.03 0.01 89 1020.5
20260902204526 64 270 0.0 1.0 0.00 0.03 0.01 90 1020.3
20260902204028 64 270 0.0 1.0 0.00 0.03 0.01 91 1020.2
20260902203550 64 270 0.0 1.0 0.00 0.03 0.01 89 1020.1
20260902203052 64 270 0.0 1.0 0.00 0.03 0.01 90 1019.9
20260902202534 64 270 0.0 1.0 0.00 0.03 0.01 90 1019.9
20260902202033 64 270 0.0 0.0 0.00 0.03 0.01 90 1019.9
20260902201542 64 272 0.0 1.0 0.00 0.03 0.01 90 1020.0
20260902201047 64 272 0.0 1.0 0.00 0.03 0.01 88 1020.3
20260902200530 64 272 0.0 1.0 0.00 0.03 0.01 88 1020.4
20260902200034 64 272 0.0 1.0 0.00 0.06 0.01 88 1020.4
20260902195612 64 283 0.0 2.0 0.00 0.06 0.01 89 1020.4
20260902195036 64 329 1.0 2.0 0.00 0.06 0.01 89 1020.3
20260902194535 64 123 1.0 1.0 0.00 0.06 0.01 89 1020.2
20260902194038 64 122 0.0 2.0 0.00 0.06 0.01 89 1020.3
20260902193546 64 122 0.0 2.0 0.00 0.06 0.01 90 1020.4
20260902193030 63 38 0.0 2.0 0.00 0.06 0.01 90 1020.3
20260902192533 63 32 0.0 1.0 0.00 0.06 0.01 91 1020.5
20260902192040 63 32 0.0 0.0 0.00 0.06 0.01 91 1020.6
20260902191543 63 32 0.0 0.0 0.00 0.06 0.01 89 1020.7
20260902191042 63 32 0.0 0.0 0.00 0.06 0.01 90 1020.7
20260902190526 63 32 0.0 0.0 0.00 0.06 0.01 91 1020.8
20260902190026 63 32 0.0 0.0 0.00 0.09 0.01 90 1020.9
20260902185532 63 32 0.0 0.0 0.00 0.09 0.01 90 1021.1
20260902185039 63 32 0.0 0.0 0.00 0.09 0.01 91 1021.2
20260902184542 63 32 0.0 0.0 0.00 0.09 0.01 91 1021.2
20260902184025 63 32 0.0 0.0 0.00 0.09 0.01 89 1021.1
20260902183528 63 32 0.0 0.0 0.00 0.09 0.01 89 1020.9
20260902183033 64 32 0.0 0.0 0.00 0.09 0.01 89 1021.0
20260902182536 64 32 0.0 0.0 0.00 0.09 0.01 88 1020.9
20260902182054 64 32 0.0 2.0 0.00 0.09 0.01 88 1020.8
20260902181536 64 32 0.0 2.0 0.00 0.09 0.01 87 1020.9
20260902181042 64 70 0.0 1.0 0.00 0.09 0.01 88 1020.9
20260902180526 64 128 0.0 1.0 0.00 0.09 0.01 89 1020.7
20260902180027 64 126 0.0 2.0 0.00 0.09 0.01 88 1020.6
20260902175533 64 123 0.0 2.0 0.00 0.09 0.01 87 1020.4
20260902175036 64 84 0.0 2.0 0.00 0.09 0.01 87 1020.5
20260902174539 64 54 0.0 2.0 0.00 0.09 0.01 88 1020.7
20260902174042 64 5 0.0 2.0 0.00 0.09 0.01 89 1020.8
20260902173526 64 5 0.0 1.0 0.00 0.09 0.01 88 1020.8
20260902173030 64 5 0.0 1.0 0.00 0.09 0.01 88 1020.9
20260902172532 63 344 0.0 1.0 0.00 0.09 0.01 87 1021.0
20260902172041 63 179 0.0 1.0 0.00 0.09 0.01 87 1021.1
20260902171544 63 120 0.0 2.0 0.00 0.09 0.01 85 1021.1
20260902171028 63 112 0.0 2.0 0.00 0.09 0.01 87 1021.3
20260902170534 63 252 0.0 1.0 0.00 0.09 0.01 87 1021.3
20260902170035 63 318 0.0 1.0 0.00 0.36 0.01 89 1021.3
20260902165553 63 318 0.0 2.0 0.00 0.36 0.01 87 1021.3
20260902165051 63 202 0.0 2.0 0.00 0.36 0.01 86 1021.3
20260902164525 63 202 0.0 1.0 0.00 0.36 0.01 85 1021.2
20260902164043 63 202 0.0 1.0 0.00 0.36 0.01 87 1021.2
20260902163546 63 136 0.0 2.0 0.00 0.36 0.01 87 1021.2
20260902163050 63 135 1.0 2.0 0.00 0.36 0.01 85 1021.2
20260902162533 63 105 0.0 1.0 0.00 0.36 0.01 88 1021.2
20260902162036 63 86 0.0 1.0 0.00 0.36 0.01 88 1021.2
20260902161558 63 87 0.0 2.0 0.00 0.36 0.01 87 1021.2
20260902161026 63 88 0.0 2.0 0.00 0.36 0.01 87 1021.4
20260902160530 62 67 0.0 2.0 0.00 0.36 0.01 85 1021.4
20260902160032 62 128 1.0 2.0 0.00 0.36 0.01 84 1021.3
20260902155613 62 127 1.0 2.0 0.00 0.36 0.01 85 1021.3
20260902155055 62 109 0.0 2.0 0.00 0.36 0.01 88 1021.3
20260902154540 62 109 0.0 2.0 0.00 0.36 0.01 89 1021.3
20260902154039 62 111 1.0 3.0 0.00 0.36 0.01 88 1021.3
20260902153527 62 121 1.0 3.0 0.00 0.36 0.01 88 1021.3
20260902153028 62 341 0.0 2.0 0.00 0.36 0.01 89 1021.3
20260902152533 62 341 1.0 2.0 0.00 0.36 0.01 90 1021.4
20260902152035 61 114 0.0 2.0 0.00 0.36 0.01 91 1021.4
20260902151538 61 134 1.0 2.0 0.00 0.36 0.01 92 1021.5
20260902151044 61 135 1.0 2.0 0.00 0.36 0.01 91 1021.5
20260902150527 61 82 0.0 3.0 0.00 0.36 0.01 92 1021.8
20260902150028 61 83 1.0 3.0 0.00 0.37 0.01 92 1022.0
20260902145612 61 320 0.0 1.0 0.00 0.37 0.01 93 1022.1
20260902145031 61 320 0.0 1.0 0.00 0.37 0.01 93 1022.1
20260902144533 61 321 0.0 1.0 0.00 0.37 0.01 94 1022.0
20260902144051 61 321 0.0 1.0 0.00 0.37 0.01 94 1021.9
20260902143601 60 205 0.0 2.0 0.00 0.37 0.01 94 1021.7
20260902143038 60 205 0.0 1.0 0.00 0.37 0.01 95 1021.7
20260902142543 60 206 0.0 2.0 0.00 0.37 0.01 95 1021.6
20260902142042 60 201 1.0 2.0 0.00 0.37 0.01 95 1021.8
20260902141528 60 189 0.0 2.0 0.00 0.37 0.01 95 1021.8
20260902141034 60 84 0.0 1.0 0.00 0.37 0.01 95 1021.7
20260902140537 60 83 0.0 1.0 0.00 0.37 0.01 95 1021.7
20260902140039 60 83 0.0 1.0 0.00 0.40 0.01 95 1021.7
20260902135544 60 83 0.0 1.0 0.00 0.40 0.01 96 1021.7
20260902135033 60 69 0.0 2.0 0.00 0.40 0.01 96 1021.7
20260902134611 60 65 1.0 2.0 0.00 0.40 0.01 96 1021.7
20260902134053 60 64 0.0 1.0 0.00 0.40 0.01 96 1021.7
20260902133559 60 64 0.0 1.0 0.00 0.40 0.01 96 1021.6
20260902133045 60 64 0.0 1.0 0.00 0.40 0.01 96 1021.5
20260902132553 59 62 0.0 2.0 0.00 0.40 0.01 96 1021.4
20260902132051 59 99 0.0 2.0 0.01 0.40 0.01 96 1021.4
20260902131534 59 80 0.0 1.0 0.01 0.40 0.01 96 1021.3
20260902131039 59 80 0.0 2.0 0.01 0.40 0.01 97 1021.2
20260902130544 59 53 0.0 2.0 0.01 0.40 0.01 96 1021.3
20260902130024 59 355 0.0 2.0 0.01 0.60 0.01 97 1021.4
20260902125533 59 355 0.0 2.0 0.01 0.60 0.01 97 1021.4
20260902125036 59 25 0.0 1.0 0.01 0.60 0.01 97 1021.3
20260902124535 59 24 0.0 2.0 0.01 0.60 0.01 97 1021.3
20260902124102 59 21 0.0 1.0 0.01 0.60 0.01 97 1021.2
20260902123545 58 21 0.0 1.0 0.01 0.60 0.01 97 1021.3
20260902123101 58 22 0.0 1.0 0.01 0.60 0.01 97 1021.3
20260902122603 58 22 0.0 1.0 0.01 0.60 0.01 97 1021.2
20260902122025 58 207 0.0 0.0 0.00 0.59 0.00 97 1021.2
20260902121524 58 207 0.0 1.0 0.00 0.59 0.00 97 1021.1
20260902121047 58 207 0.0 1.0 0.00 0.59 0.00 97 1021.1
20260902120546 58 208 0.0 1.0 0.00 0.59 0.00 97 1021.1
20260902120047 58 209 0.0 1.0 0.00 0.69 0.00 97 1021.1
20260902115556 58 212 0.0 1.0 0.00 0.69 0.00 97 1021.1
20260902115040 58 212 0.0 1.0 0.00 0.69 0.00 97 1021.1
20260902114543 57 212 0.0 1.0 0.00 0.69 0.00 97 1021.1
20260902114042 57 216 0.0 1.0 0.00 0.69 0.00 97 1021.2
20260902113546 57 218 0.0 0.0 0.00 0.69 0.00 97 1021.3
20260902113028 57 218 0.0 0.0 0.00 0.69 0.00 97 1021.4
20260902112531 57 218 0.0 0.0 0.00 0.69 0.00 97 1021.4
20260902112034 57 218 0.0 0.0 0.00 0.69 0.00 97 1021.4
20260902111537 57 218 0.0 0.0 0.00 0.69 0.00 97 1021.6
20260902111040 57 218 0.0 1.0 0.00 0.69 0.00 97 1021.5
20260902110543 57 218 0.0 1.0 0.00 0.69 0.00 97 1021.5
20260902110045 57 218 0.0 1.0 0.00 0.90 0.00 97 1021.4
20260902105527 57 218 0.0 2.0 0.00 0.90 0.00 97 1021.5
20260902105048 57 218 0.0 2.0 0.00 0.90 0.00 97 1021.3
20260902104556 57 218 0.0 0.0 0.00 0.90 0.00 97 1021.2
20260902104058 57 218 0.0 0.0 0.00 0.90 0.00 97 1021.2
20260902103542 57 218 0.0 0.0 0.00 0.90 0.00 97 1021.1
20260902103046 57 218 0.0 0.0 0.00 0.90 0.00 97 1021.0
20260902102551 57 218 0.0 0.0 0.00 0.90 0.00 97 1021.0
20260902102038 57 218 0.0 0.0 0.00 0.90 0.00 97 1021.0
20260902101559 57 218 0.0 0.0 0.00 0.90 0.00 97 1020.9
20260902101028 57 218 0.0 0.0 0.00 0.90 0.00 97 1020.9
20260902100533 57 218 0.0 0.0 0.00 0.90 0.00 97 1020.8
20260902100044 57 218 0.0 0.0 0.00 0.93 0.00 97 1020.7
20260902095525 57 218 0.0 0.0 0.00 0.93 0.00 97 1020.7
20260902095028 58 218 0.0 0.0 0.00 0.93 0.00 97 1020.7
20260902094552 58 218 0.0 0.0 0.00 0.93 0.00 97 1020.7
20260902094040 58 218 0.0 0.0 0.00 0.93 0.00 97 1020.6
20260902093559 58 218 0.0 0.0 0.00 0.93 0.00 97 1020.6
20260902093025 58 218 0.0 0.0 0.00 0.93 0.00 97 1020.5
20260902092546 58 218 0.0 0.0 0.00 0.93 0.00 97 1020.4
20260902092044 58 218 0.0 0.0 0.00 0.93 0.00 97 1020.3
20260902091545 58 218 0.0 0.0 0.00 0.93 0.00 97 1020.2
20260902091052 58 218 0.0 0.0 0.00 0.93 0.00 97 1020.1
20260902090536 58 218 0.0 0.0 0.00 0.93 0.00 97 1020.2
20260902090040 58 218 0.0 0.0 0.00 0.94 0.00 97 1020.2
20260902085543 58 218 0.0 0.0 0.00 0.94 0.00 97 1020.2
20260902085039 58 218 0.0 0.0 0.00 0.94 0.00 97 1020.1
20260902084542 58 218 0.0 0.0 0.00 0.94 0.00 97 1020.1
20260902084059 58 218 0.0 0.0 0.00 0.94 0.00 96 1020.2
20260902083527 58 218 0.0 0.0 0.00 0.94 0.00 97 1020.2
20260902083104 58 218 0.0 0.0 0.00 0.94 0.00 97 1020.1
20260902082525 58 218 0.0 0.0 0.00 0.94 0.00 97 1020.0
20260902082028 58 218 0.0 0.0 0.00 0.94 0.00 97 1020.0
20260902081527 58 218 0.0 0.0 0.00 0.94 0.00 97 1020.0
20260902081033 58 218 0.0 0.0 0.00 0.94 0.00 97 1020.0
20260902080538 58 218 0.0 0.0 0.00 0.94 0.00 97 1019.9
20260902080043 58 218 0.0 0.0 0.00 0.96 0.00 97 1019.9
20260902075549 58 218 0.0 0.0 0.00 0.96 0.00 97 1019.8
20260902075034 59 218 0.0 0.0 0.00 0.96 0.00 97 1019.8
20260902074552 59 218 0.0 0.0 0.00 0.96 0.00 97 1019.8
20260902074035 59 218 0.0 0.0 0.00 0.96 0.00 97 1019.8
20260902073543 59 218 0.0 0.0 0.00 0.96 0.00 97 1019.9
20260902073047 59 218 0.0 0.0 0.00 0.96 0.00 97 1020.0
20260902072530 59 218 0.0 0.0 0.00 0.96 0.00 97 1020.2
20260902072053 59 218 0.0 0.0 0.00 0.96 0.00 97 1020.2
20260902071535 59 218 0.0 0.0 0.00 0.96 0.00 97 1020.3
20260902071109 59 218 0.0 0.0 0.00 0.96 0.00 97 1020.2
20260902070553 59 218 0.0 0.0 0.00 0.96 0.00 97 1020.1
20260902070036 59 218 0.0 0.0 0.00 0.96 0.00 97 1020.0
20260902065542 59 218 0.0 0.0 0.00 0.96 0.00 97 1020.3
20260902065045 59 218 0.0 0.0 0.00 0.96 0.00 97 1020.3
20260902064530 59 218 0.0 0.0 0.00 0.96 0.00 97 1020.4
20260902064033 59 218 0.0 1.0 0.00 0.96 0.00 97 1020.3
20260902063534 59 218 0.0 0.0 0.00 0.96 0.00 97 1020.3
20260902063038 59 218 0.0 0.0 0.00 0.96 0.00 97 1020.4
20260902062542 59 218 0.0 0.0 0.00 0.96 0.00 97 1020.3
20260902062024 59 218 0.0 1.0 0.00 0.96 0.00 97 1020.3
20260902061602 59 218 0.0 1.0 0.00 0.96 0.00 97 1020.1
20260902061044 59 218 0.0 1.0 0.00 0.96 0.00 97 1020.0
20260902060544 59 219 0.0 2.0 0.00 0.96 0.00 97 1020.1
20260902060032 59 218 0.0 1.0 0.00 0.96 0.00 97 1020.1
20260902055535 59 219 0.0 1.0 0.00 0.96 0.00 97 1020.1
20260902055037 59 219 0.0 0.0 0.00 0.96 0.00 97 1020.0
20260902054541 59 219 0.0 0.0 0.00 0.96 0.00 97 1019.9
20260902054024 59 219 0.0 0.0 0.00 0.96 0.00 97 1019.8
20260902053603 59 219 0.0 0.0 0.00 0.96 0.00 97 1019.8
20260902053039 59 219 0.0 0.0 0.00 0.96 0.00 97 1019.9
20260902052545 59 219 0.0 0.0 0.00 0.96 0.00 97 1019.8
20260902052030 59 219 0.0 1.0 0.00 0.96 0.00 97 1019.6
20260902051533 59 219 0.0 1.0 0.00 0.96 0.00 97 1019.6
20260902051059 59 244 0.0 1.0 0.00 0.96 0.00 97 1019.6
20260902050525 59 243 0.0 0.0 0.00 0.96 0.00 97 1019.6
20260902050117 59 243 0.0 0.0 0.00 0.96 0.00 97 1019.5
20260902045527 59 243 0.0 0.0 0.00 0.96 0.00 97 1019.6
20260902045045 59 243 0.0 0.0 0.00 0.96 0.00 97 1019.6
20260902044527 59 243 0.0 0.0 0.00 0.96 0.00 97 1019.6
20260902044036 59 243 0.0 0.0 0.00 0.96 0.00 97 1019.5
20260902043601 59 243 0.0 0.0 0.00 0.96 0.00 97 1019.4
20260902043024 59 243 0.0 0.0 0.00 0.96 0.00 97 1019.4
20260902042523 59 243 0.0 0.0 0.00 0.96 0.00 97 1019.3
20260902042029 59 243 0.0 0.0 0.00 0.96 0.00 97 1019.2
20260902041532 59 243 0.0 0.0 0.00 0.96 0.00 97 1019.2
20260902041050 59 243 0.0 0.0 0.00 0.96 0.00 97 1019.1
20260902040557 59 243 0.0 0.0 0.00 0.96 0.00 97 1019.1
20260902040041 59 243 0.0 1.0 0.00 0.96 0.96 97 1019.0
20260902035527 59 243 0.0 1.0 0.00 0.96 0.96 97 1019.0
20260902035029 59 243 1.0 1.0 0.00 0.96 0.96 97 1019.1
20260902034531 59 243 0.0 1.0 0.00 0.96 0.96 97 1019.0
20260902034038 59 243 0.0 1.0 0.00 0.96 0.96 97 1018.8
20260902033542 58 243 0.0 1.0 0.00 0.96 0.96 97 1018.7
20260902033024 58 250 0.0 0.0 0.00 0.96 0.96 97 1018.9
20260902032547 59 250 0.0 1.0 0.00 0.96 0.96 97 1018.9
20260902032028 58 250 0.0 1.0 0.00 0.96 0.96 97 1018.9
20260902031606 58 250 0.0 0.0 0.00 0.96 0.96 97 1018.9
20260902031031 58 250 0.0 1.0 0.00 0.96 0.96 97 1019.0
20260902030535 58 250 0.0 2.0 0.00 0.96 0.96 97 1018.8
20260902030040 58 250 0.0 2.0 0.00 0.96 0.96 97 1018.7
20260902025543 58 250 1.0 2.0 0.00 0.96 0.96 97 1018.7
20260902025026 58 341 0.0 1.0 0.00 0.96 0.96 96 1018.3
20260902024527 58 340 0.0 1.0 0.00 0.96 0.96 97 1018.5
20260902024051 58 340 0.0 1.0 0.00 0.96 0.96 97 1018.8
20260902023609 58 340 0.0 1.0 0.00 0.96 0.96 97 1018.8
20260902023030 58 340 0.0 1.0 0.00 0.96 0.96 97 1018.9
20260902022533 58 340 0.0 1.0 0.00 0.96 0.96 97 1018.9
20260902022042 58 340 0.0 1.0 0.00 0.96 0.96 96 1018.8
20260902021528 58 340 0.0 1.0 0.00 0.96 0.96 96 1018.9
20260902021030 58 340 0.0 1.0 0.00 0.96 0.96 96 1018.7
20260902020537 58 342 0.0 2.0 0.00 0.96 0.96 96 1018.8
20260902015523 58 119 0.0 0.0 0.00 0.96 0.96 96 1018.9
20260902015029 58 119 0.0 1.0 0.00 0.96 0.96 96 1018.9
20260902014607 58 119 0.0 2.0 0.00 0.96 0.96 96 1018.9
20260902014046 58 115 0.0 2.0 0.00 0.96 0.96 96 1018.9
20260902013530 58 115 0.0 2.0 0.00 0.96 0.96 96 1018.8
20260902013034 58 115 0.0 2.0 0.00 0.96 0.96 96 1018.8
20260902012538 59 115 0.0 1.0 0.00 0.96 0.96 96 1018.7
20260902012041 59 115 0.0 1.0 0.00 0.96 0.96 96 1018.6
20260902011544 59 115 0.0 1.0 0.00 0.96 0.96 96 1018.6
20260902011027 59 115 0.0 1.0 0.00 0.96 0.96 96 1018.5
20260902010529 59 116 0.0 1.0 0.00 0.96 0.96 96 1018.4
20260902010031 59 116 0.0 1.0 0.00 0.96 0.96 96 1018.5
20260902005534 59 116 0.0 1.0 0.00 0.96 0.96 96 1018.4
20260902005112 59 116 0.0 2.0 0.00 0.96 0.96 96 1018.4
20260902004525 59 119 0.0 2.0 0.00 0.96 0.96 96 1018.3
20260902004044 59 97 0.0 2.0 0.00 0.96 0.96 96 1018.1
20260902003546 59 97 0.0 2.0 0.00 0.96 0.96 96 1018.0
20260902003049 59 95 0.0 2.0 0.00 0.96 0.96 96 1017.9
20260902002552 59 84 1.0 2.0 0.00 0.96 0.96 96 1017.8
20260902002038 59 84 0.0 1.0 0.00 0.96 0.96 96 1017.8
20260902001605 59 84 0.0 1.0 0.01 0.96 0.96 96 1017.8
20260902001026 59 84 0.0 1.0 0.01 0.96 0.96 96 1017.9
20260902000531 59 84 0.0 2.0 0.01 0.96 0.96 96 1017.7
20260902000032 59 84 0.0 2.0 0.01 0.96 0.96 96 1017.8
20260901235531 60 84 0.0 2.0 0.01 0.96 0.96 96 1017.7
20260901235034 60 84 0.0 2.0 0.01 0.96 0.96 96 1017.7
20260901234537 60 84 1.0 2.0 0.01 0.96 0.96 96 1017.8
20260901234059 60 122 0.0 2.0 0.01 0.96 0.96 96 1017.7
20260901233603 60 124 0.0 2.0 0.01 0.96 0.96 96 1017.3
20260901233044 60 146 0.0 2.0 0.01 0.96 0.96 96 1017.5
20260901232526 60 146 0.0 2.0 0.01 0.96 0.96 96 1017.5
20260901232028 60 146 1.0 2.0 0.01 0.96 0.96 96 1017.4
20260901231532 61 156 0.0 3.0 0.00 0.95 0.95 96 1017.5
20260901231058 61 156 1.0 3.0 0.00 0.95 0.95 96 1017.7
20260901230540 61 319 0.0 1.0 0.00 0.95 0.95 96 1017.8
20260901225531 61 319 0.0 1.0 0.00 0.95 0.95 96 1017.8
20260901225030 61 319 0.0 1.0 0.00 0.95 0.95 96 1017.7
20260901224536 61 319 0.0 2.0 0.00 0.95 0.95 96 1017.5
20260901224054 61 319 1.0 2.0 0.00 0.95 0.95 96 1017.6
20260901223540 61 194 0.0 2.0 0.00 0.95 0.95 96 1017.4
20260901223042 62 201 1.0 2.0 0.00 0.95 0.95 96 1017.4
20260901222528 62 241 0.0 2.0 0.00 0.95 0.95 96 1017.3
20260901222031 62 326 0.0 2.0 0.01 0.95 0.95 96 1017.2
20260901221530 62 326 0.0 1.0 0.01 0.95 0.95 96 1017.2
20260901221033 62 326 0.0 2.0 0.01 0.95 0.95 96 1017.3
20260901220537 62 326 1.0 2.0 0.01 0.95 0.95 96 1017.4
20260901220038 62 334 0.0 2.0 0.01 0.95 0.95 96 1017.4
20260901215540 62 149 0.0 1.0 0.01 0.95 0.95 96 1017.3
20260901215026 63 149 0.0 2.0 0.01 0.95 0.95 96 1017.2
20260901214528 63 149 0.0 2.0 0.01 0.95 0.95 96 1017.1
20260901214026 63 149 1.0 2.0 0.01 0.95 0.95 96 1017.1
20260901213530 63 149 0.0 2.0 0.01 0.95 0.95 96 1017.0
20260901213047 63 149 1.0 2.0 0.01 0.95 0.95 96 1017.0